Weather in Tacna

Peru     18°00′27″S   70°14′21″W
temp.,
°C
wind,
m/s
gust,
m/s
humid.,
%
clouds,
%
prec.,
mm/h
press.,
hPa
HPBL,
m
24 january, mon
mon2401:00+17ssw1187100 0.0 1013106
04:00+16ssw119396 0.0 1013138
07:00+18wsw118659 0.0 1013291
10:00+22sw3263100 0.0 1013811
13:00+25sw635442 0.0 10101009
16:00+22sw536448 0.0 1011720
19:00+18sw2186100 0.0 1013284
22:00+18wsw2187100 0.0 1014256
25 january, tue
tue2501:00+17sw2190100 0.1 1012216
04:00+17sw2294100 1.1 1013262
07:00+17sw1188100 1.1 1014273
10:00+21sw326799 0.0 1013721
13:00+24sw635617 0.0 1011962
16:00+21sw4268100 0.1 1011614
19:00+17sw218682 0.1 1013316
22:00+17sw2289100 0.0 1014287
26 january, wed
wed2601:00+17sw218866 0.0 1013240
04:00+17sw219296 0.0 1013239
07:00+17sw219091 0.0 1015278
10:00+20sw317381 0.0 1015704
13:00+23sw536055 0.0 1013939
16:00+20sw427392 0.0 1014690
19:00+18sw3286100 0.1 1015370
22:00+17sw2190100 0.2 1017321
27 january, thu
thu2701:00+17ssw2191100 0.4 1015267
04:00+17sw1191100 0.0 1015244
07:00+17ssw2189100 0.0 1015288
10:00+20sw317392 0.0 1015752
13:00+23sw535943 0.0 10131007
16:00+21sw527172 0.0 1013679
19:00+17sw3289100 0.1 1015371
22:00+17sw2190100 0.0 1016305
28 january, fri
fri2801:00+17ssw2189100 0.1 1014229
04:00+17ssw2191100 0.3 1013204
07:00+17ssw2190100 0.3 1015276
10:00+20sw317597 0.0 1014669
13:00+22sw536787 0.0 1013792
16:00+20sw4274100 0.0 1012641
19:00+17sw329199 0.0 1014322
22:00+17sw2191100 0.0 1015283